[[{"header":{"parameterUnit":"m.s-1","parameterCategory":1,"la1":30.2991,"la2":30.254,"lo1":-89.0895,"lo2":-89.0444,"dy":0.0017,"dx":0.0017,"nx":28,"ny":28,"refTime":"2025-12-28T09:00:00:Z","depth":0,"parameterNumber":2,"parameterNumberName":"U-component_of_WINDS"},"data":[0,0,0,0,0,0,0,0,0,0,0,0,0,0,0,0,0,0,0,0,0,0,0,0,0,0,0,0,0,0,0,0,0,0,0,0,0,0,0,0,0,0,0,0,0,0,0,0,0,0,0,0,0,0,0,0,0,0,-0.6769,-0.6769,0,-0.678,-0.678,-0.678,-0.6781,-0.6781,-0.6781,-0.6781,-0.6793,-0.6793,-0.6794,0,0,0,0,0,0,0,0,0,0,0,0,0,-0.6749,-0.6749,-0.6769,-0.6769,-0.6769,-0.678,-0.678,-0.678,-0.6781,-0.6781,-0.6781,-0.6781,-0.6793,-0.6793,-0.6794,0,0,0,0,0,0,0,0,0,0,0,0,0,-0.6758,-0.6749,-0.6769,-0.6771,-0.6771,-0.678,-0.678,-0.678,-0.6781,-0.6781,-0.6781,-0.6781,-0.6793,-0.6793,-0.6794,-0.6801,0,0,-0.6796,-0.6796,0,0,0,0,0,0,0,0,-0.6758,-0.6759,-0.677,-0.6771,-0.6771,-0.6779,-0.6777,-0.6787,-0.6781,-0.6778,-0.6781,-0.6781,-0.6788,-0.6789,-0.6792,-0.6802,-0.6803,-0.6796,-0.6796,-0.6797,-0.6797,0,0,0,0,0,0,0,-0.6757,-0.6759,-0.6773,-0.6771,-0.6771,-0.6771,-0.6773,-0.6779,-0.6784,-0.6778,-0.6778,-0.6779,-0.6789,-0.6791,-0.6792,-0.6803,-0.6796,-0.6796,-0.6797,-0.6797,-0.682,-0.682,0,0,0,0,0,0,-0.6756,-0.6758,-0.6773,-0.6774,-0.6764,-0.6772,-0.6773,-0.6777,-0.6784,-0.6785,-0.6779,-0.6779,-0.679,-0.6792,-0.6793,-0.6802,-0.6797,-0.6797,-0.6798,-0.6819,-0.682,-0.682,0,0,0,0,0,0,-0.6756,-0.6757,-0.6772,-0.6766,-0.6768,-0.6772,-0.6776,-0.6777,-0.678,-0.6785,-0.6786,-0.6781,-0.679,-0.6792,-0.6799,-0.6802,-0.6797,-0.6798,-0.6819,-0.682,-0.682,-0.6821,0,0,0,0,0,0,-0.6755,-0.6757,-0.676,-0.6766,-0.6768,-0.6779,-0.6777,-0.6777,-0.6781,-0.6781,-0.6787,-0.6788,-0.679,-0.6798,-0.68,-0.6803,-0.6799,-0.6819,-0.6819,-0.682,-0.682,-0.6821,-0.6822,0,0,0,0,0,-0.6754,-0.676,-0.676,-0.6762,-0.6772,-0.6779,-0.678,-0.6783,-0.6781,-0.6784,-0.6787,-0.6788,-0.6802,-0.6799,-0.6801,-0.6804,-0.6819,-0.6819,-0.682,-0.682,-0.6821,-0.6822,0,0,0,0,0,0,-0.6754,-0.6761,-0.6761,-0.6769,-0.6773,-0.6779,-0.6783,-0.6783,-0.6789,-0.6788,-0.6791,-0.6793,-0.68,-0.6803,-0.68,-0.6812,-0.681,-0.6811,-0.681,-0.6811,-0.6811,-0.681,-0.6799,0,0,0,0,0,-0.6755,-0.676,-0.6766,-0.6772,-0.6774,-0.6778,-0.6781,-0.6783,-0.6788,-0.679,-0.6794,-0.6798,-0.6804,-0.6808,-0.6813,-0.6821,-0.6822,-0.6824,-0.6825,-0.6825,-0.6826,-0.683,-0.6831,-0.6821,-0.6821,-0.6821,0,0,-0.6757,-0.6761,-0.6764,-0.6772,-0.6776,-0.6781,-0.678,-0.6785,-0.6789,-0.6791,-0.6798,-0.6801,-0.6806,-0.6814,-0.6818,-0.6817,-0.6829,-0.6826,-0.6826,-0.6827,-0.6831,-0.6832,-0.6833,-0.6822,-0.6822,-0.6822,0,0,-0.6763,-0.6767,-0.6772,-0.6776,-0.6782,-0.6784,-0.6786,-0.6791,-0.6793,-0.6801,-0.6802,-0.6807,-0.6816,-0.682,-0.6823,-0.6831,-0.6831,-0.6833,-0.6836,-0.684,-0.6841,-0.6841,-0.6844,-0.6845,-0.6833,-0.6833,-0.6833,0,-0.6765,-0.6773,-0.6775,-0.6781,-0.6784,-0.6785,-0.6791,-0.6795,-0.6802,-0.6804,-0.6803,-0.6815,-0.6819,-0.6828,-0.683,-0.6832,-0.6834,-0.6832,-0.684,-0.6841,-0.6842,-0.6844,-0.6845,-0.6834,-0.6834,-0.6834,-0.6834,0,-0.6774,-0.678,-0.6784,-0.679,-0.6794,-0.68,-0.6803,-0.6807,-0.6808,-0.6811,-0.6819,-0.6823,-0.683,-0.6832,-0.6833,-0.6841,-0.684,-0.684,-0.6838,-0.6843,-0.6845,-0.6846,-0.6834,-0.6834,-0.6834,-0.6834,0,0,-0.6781,-0.6789,-0.679,-0.6793,-0.6799,-0.6804,-0.6809,-0.6816,-0.6819,-0.6824,-0.6828,-0.6837,-0.6836,-0.684,-0.6842,-0.6846,-0.6851,-0.6845,-0.6845,-0.6845,-0.686,-0.686,-0.6861,-0.6852,-0.6852,-0.6852,-0.6859,0,-0.6787,-0.6797,-0.68,-0.6808,-0.6814,-0.6815,-0.682,-0.6824,-0.6827,-0.6832,-0.6835,-0.6841,-0.684,-0.6842,-0.6846,-0.685,-0.6854,-0.6849,-0.6856,-0.6856,-0.6854,-0.6862,-0.6862,-0.6869,-0.686,-0.686,-0.686,0,-0.6796,-0.6801,-0.681,-0.6816,-0.6818,-0.6823,-0.6828,-0.6833,-0.6838,-0.684,-0.6844,-0.6846,-0.6852,-0.685,-0.6858,-0.6855,-0.6858,-0.686,-0.6861,-0.6861,-0.6858,-0.6863,-0.6871,-0.6872,-0.6862,-0.6862,-0.6862,0,-0.68,-0.6809,-0.6815,-0.6818,-0.6825,-0.6828,-0.6831,-0.6836,-0.6839,-0.6844,-0.6847,-0.6853,-0.6856,-0.686,-0.6863,-0.6862,-0.6872,-0.687,-0.6873,-0.6873,-0.6875,-0.6875,-0.6884,-0.6878,-0.6878,-0.6878,-0.6878,0,-0.6807,-0.6812,-0.6817,-0.6821,-0.6827,-0.683,-0.6836,-0.6839,-0.6844,-0.6848,-0.685,-0.6855,-0.6859,-0.6864,-0.6866,-0.6873,-0.6874,-0.6876,-0.6876,-0.6876,-0.6875,-0.6877,-0.6877,-0.6878,-0.6878,-0.6878,-0.6878,0,-0.6811,-0.6815,-0.6822,-0.6828,-0.6829,-0.6834,-0.6839,-0.6843,-0.6846,-0.6852,-0.6853,-0.6858,-0.6864,-0.6867,-0.6875,-0.6877,-0.6884,-0.6885,-0.6882,-0.6882,-0.6886,-0.6885,-0.6896,-0.6897,-0.689,-0.689,-0.689,0,-0.6816,-0.682,-0.6826,-0.6829,-0.6832,-0.6837,-0.6841,-0.6844,-0.6848,-0.6854,-0.6857,-0.6863,-0.6868,-0.6878,-0.6882,-0.6888,-0.6888,-0.6892,-0.6889,-0.6888,-0.6888,-0.6888,-0.6888,-0.6892,-0.6892,-0.6892,-0.6892,0,-0.6823,-0.6824,-0.6829,-0.6834,-0.6839,-0.6843,-0.6848,-0.685,-0.6854,-0.6858,-0.6864,-0.6868,-0.6876,-0.6882,-0.6888,-0.6891,-0.6892,-0.6893,-0.6894,-0.6893,-0.6891,-0.6892,-0.6883,-0.6893,-0.6893,-0.6893,-0.6893,-0.6892,-0.6827,-0.6831,-0.6836,-0.6841,-0.6845,-0.6849,-0.6853,-0.6856,-0.6861,-0.6868,-0.687,-0.6876,-0.6881,-0.6889,-0.6893,-0.6898,-0.6897,-0.6899,-0.6899,-0.69,-0.69,-0.6891,-0.6899,-0.6899,-0.6899,-0.6899,-0.6899,0,-0.6834,-0.6837,-0.6842,-0.6848,-0.6853,-0.6853,-0.6858,-0.6862,-0.6867,-0.6872,-0.6877,-0.6884,-0.689,-0.6894,-0.69,-0.6903,-0.6904,-0.6905,-0.6905,-0.6905,-0.69,-0.6898,-0.6904,-0.6904,-0.6904,-0.6904,-0.6904,-0.6904,-0.6838,-0.6844,-0.6846,-0.6855,-0.6858,-0.6864,-0.6867,-0.6871,-0.6874,-0.6882,-0.6887,-0.689,-0.6894,-0.6901,-0.6906,-0.6907,-0.6909,-0.691,-0.6911,-0.6906,-0.6906,-0.6905,-0.6904,-0.6911,-0.6911,-0.6916,-0.6916,-0.6916]},{"header":{"parameterUnit":"m.s-1","parameterCategory":1,"la1":30.2991,"la2":30.254,"lo1":-89.0895,"lo2":-89.0444,"dy":0.0017,"dx":0.0017,"nx":28,"ny":28,"refTime":"2025-12-28T09:00:00:Z","depth":0,"parameterNumber":3,"parameterNumberName":"V-component_of_WINDS"},"data":[0,0,0,0,0,0,0,0,0,0,0,0,0,0,0,0,0,0,0,0,0,0,0,0,0,0,0,0,0,0,0,0,0,0,0,0,0,0,0,0,0,0,0,0,0,0,0,0,0,0,0,0,0,0,0,0,0,0,2.0105,2.0106,0,2.0194,2.0195,2.0196,2.021,2.0209,2.0208,2.0208,2.0295,2.0298,2.0301,0,0,0,0,0,0,0,0,0,0,0,0,0,1.9945,1.9948,2.0105,2.0106,2.0108,2.0193,2.0195,2.0196,2.021,2.0209,2.0208,2.0207,2.0294,2.0298,2.0301,0,0,0,0,0,0,0,0,0,0,0,0,0,2.0022,1.9949,2.0105,2.0125,2.0128,2.0193,2.0195,2.0196,2.021,2.0209,2.0208,2.0207,2.0293,2.0297,2.0302,2.0353,0,0,2.0316,2.0318,0,0,0,0,0,0,0,0,2.0018,2.0028,2.0121,2.0124,2.0127,2.019,2.017,2.0249,2.0211,2.0179,2.0208,2.0206,2.0261,2.0268,2.0287,2.0357,2.0361,2.0316,2.0319,2.0321,2.0322,0,0,0,0,0,0,0,2.0013,2.0024,2.014,2.0122,2.0126,2.0128,2.0138,2.0185,2.0225,2.0182,2.0183,2.0193,2.0262,2.0282,2.0289,2.0362,2.0316,2.032,2.0323,2.0325,2.0477,2.0479,0,0,0,0,0,0,2.0004,2.002,2.0137,2.0143,2.0069,2.0132,2.0143,2.0171,2.0225,2.0232,2.0194,2.0194,2.0275,2.0284,2.0292,2.0356,2.0321,2.0325,2.0328,2.0476,2.0478,2.0479,0,0,0,0,0,0,2.0001,2.0015,2.0134,2.0082,2.0097,2.0136,2.0167,2.0173,2.0193,2.0234,2.0241,2.0208,2.0275,2.0286,2.0338,2.0359,2.0327,2.0331,2.0475,2.0477,2.0478,2.0483,0,0,0,0,0,0,1.9996,2.0013,2.0034,2.0082,2.01,2.0179,2.0168,2.0176,2.0202,2.0202,2.0249,2.0255,2.0275,2.0331,2.0342,2.0365,2.0335,2.0473,2.0475,2.0478,2.0481,2.0485,2.0488,0,0,0,0,0,1.999,2.0031,2.0035,2.0049,2.0127,2.018,2.019,2.0213,2.0203,2.0224,2.025,2.0254,2.0354,2.0336,2.0349,2.0373,2.0472,2.0475,2.0478,2.048,2.0484,2.0488,0,0,0,0,0,0,1.9984,2.0038,2.0043,2.0101,2.0136,2.0183,2.021,2.0217,2.0254,2.0253,2.0277,2.0288,2.0339,2.0361,2.0339,2.0425,2.0412,2.0418,2.0409,2.0414,2.0417,2.0412,2.0339,0,0,0,0,0,1.9989,2.0029,2.0074,2.0121,2.0138,2.0171,2.0195,2.0209,2.0246,2.026,2.029,2.0325,2.0364,2.039,2.0428,2.0484,2.0494,2.0506,2.051,2.0512,2.0518,2.0549,2.0555,2.0489,2.0489,2.0489,0,0,2.0001,2.0035,2.0059,2.012,2.0149,2.0189,2.0183,2.0226,2.0255,2.0267,2.0318,2.0341,2.0381,2.0435,2.046,2.0455,2.0538,2.0516,2.0518,2.0522,2.0552,2.0559,2.0564,2.0491,2.0491,2.049,0,0,2.0043,2.0073,2.0115,2.0144,2.0188,2.0209,2.0219,2.0265,2.0281,2.0333,2.0342,2.0376,2.0444,2.0473,2.0496,2.0547,2.0552,2.0558,2.0577,2.0607,2.0612,2.0617,2.0636,2.0642,2.0563,2.0563,2.0563,0,2.0052,2.0114,2.0136,2.0179,2.0205,2.0217,2.0259,2.0286,2.034,2.0357,2.035,2.0435,2.0463,2.0524,2.0536,2.0554,2.0566,2.0554,2.061,2.0615,2.0619,2.0638,2.0645,2.0563,2.0563,2.0563,2.0563,0,2.0122,2.0165,2.0193,2.0246,2.0275,2.0318,2.0345,2.0372,2.0382,2.0404,2.0456,2.049,2.0535,2.055,2.0561,2.0612,2.0608,2.0605,2.0593,2.0626,2.0644,2.0651,2.0564,2.0564,2.0564,2.0564,0,0,2.0165,2.0229,2.0239,2.0263,2.0312,2.0344,2.0386,2.0431,2.0454,2.049,2.0526,2.0581,2.0579,2.0605,2.0619,2.0644,2.0683,2.0639,2.064,2.0647,2.0743,2.0746,2.0754,2.0686,2.0688,2.0689,2.074,0,2.0214,2.0291,2.0312,2.0377,2.0416,2.0427,2.0463,2.0496,2.0516,2.0552,2.0573,2.0613,2.0607,2.0623,2.0649,2.0673,2.0703,2.0669,2.072,2.0722,2.0712,2.0763,2.0767,2.0814,2.0747,2.0748,2.0749,0,2.0282,2.0321,2.039,2.0433,2.045,2.0483,2.0525,2.0559,2.0596,2.0609,2.0638,2.0648,2.0691,2.0675,2.0734,2.0711,2.0732,2.0747,2.0749,2.0757,2.0739,2.0773,2.083,2.0837,2.076,2.0759,2.0758,0,2.0308,2.0377,2.0427,2.0447,2.0498,2.052,2.0542,2.0578,2.0604,2.064,2.0657,2.0698,2.072,2.0751,2.0772,2.0758,2.083,2.0815,2.0842,2.0842,2.0859,2.0858,2.0921,2.0869,2.0869,2.0869,2.0869,0,2.0362,2.0404,2.044,2.0471,2.0518,2.0539,2.0585,2.0607,2.0638,2.0673,2.0684,2.0716,2.0741,2.0776,2.0792,2.0839,2.0848,2.086,2.0864,2.0861,2.0859,2.0876,2.0874,2.0871,2.087,2.087,2.0869,0,2.0401,2.0426,2.0481,2.0525,2.0536,2.0569,2.0606,2.0636,2.0655,2.0699,2.0711,2.0742,2.0784,2.0807,2.0859,2.087,2.0923,2.0925,2.0911,2.0914,2.0939,2.0937,2.1017,2.1029,2.0968,2.0968,2.0969,0,2.0435,2.0467,2.0514,2.0538,2.0561,2.06,2.0626,2.0648,2.0675,2.0718,2.0743,2.0785,2.0821,2.0887,2.0914,2.0954,2.0957,2.0982,2.0964,2.0959,2.096,2.0958,2.0962,2.0987,2.0987,2.0988,2.0988,0,2.0492,2.0503,2.0541,2.0583,2.0614,2.0648,2.0682,2.07,2.0727,2.0756,2.08,2.0827,2.0881,2.0923,2.0965,2.0986,2.0992,2.0993,2.1002,2.0999,2.0991,2.0997,2.0922,2.0992,2.0992,2.0991,2.0991,2.0991,2.0531,2.056,2.0598,2.0639,2.0667,2.0698,2.0728,2.0751,2.0788,2.0834,2.0844,2.0889,2.0924,2.0981,2.1003,2.1039,2.1034,2.1046,2.1049,2.1053,2.1054,2.0983,2.1046,2.1046,2.1046,2.1046,2.1046,0,2.059,2.0615,2.0652,2.0699,2.0732,2.0733,2.077,2.0797,2.0838,2.087,2.0904,2.0954,2.0994,2.1023,2.1065,2.1087,2.1091,2.1097,2.1097,2.1102,2.1056,2.1045,2.1094,2.1094,2.1094,2.1094,2.1094,2.1094,2.0625,2.0676,2.069,2.0754,2.0777,2.0823,2.0844,2.0872,2.0898,2.0953,2.0987,2.1005,2.1036,2.1079,2.1116,2.1124,2.1139,2.1146,2.1154,2.111,2.1105,2.11,2.1091,2.1148,2.1149,2.1197,2.1198,2.1198]}]]